Location: ????
(32.1228°N, 34.8377°E)
Time: 01:15:17
(UTC+00:00)

NOSS 3-4 (C) - Pass Details

Date: 21 September 2020
Orbit: 886 x 1326 km, 63.4° (Epoch: 19 October)

Event Time Altitude Azimuth Distance (km) Brightness Sun altitude
Rises 02:47:17 0° 333° (NNW) 3,914 6.4 -9.5°
Reaches altitude 10° 02:49:53 10° 336° (NNW) 3,015 5.9 -9.0°
Maximum altitude 02:57:09 68° 59° (ENE) 1,302 4.4 -7.4°
Drops below altitude 10° 03:05:05 10° 141° (SE) 3,285 6.8 -5.8°
Sets 03:08:01 0° 144° (SE) 4,283 7.3 -5.1°
